COSMOS 249 DEB, 3794

Orbit data source: Space-Track

COSMOS 249 DEB, 3794 is space debris in LEO originally from a launch on Sun, 20 Oct 1968 UTC launched from the Tyuratam Missile And Space Complex (TTMTR). Debris objects in space refer to the collection of defunct objects orbiting the Earth. Examples of debris include non-operational satellites, rocket bodies, and fragments generated from explosions, collisions, or faulty payload assembly.

Loading next visibility...
Identifier
3794, 1968-091BB
Orbit
LEO
Country
Flag of CISCIS
Related business
Manufacturer
Unknown
Mission
Spacecraft
Bus & Motor
Unknown
Mass
Unknown
Launch date (UTC)
1968-10-20 (58 years ago)
Launch vehicle
Unknown
Launch site
Tyuratam Missile And Space Complex (TTMTR)
Object type
Payload
Rocket body
Debris
Shape & HBR
Unknown shape, 0.1 m
Radar Cross Section
Small (<0.1 m²)

Expand to show TLE details & history
Last TLE update: 2 days ago

TLE from 2 days ago
0 COSMOS 249 DEB
1 03794U 68091BB  26125.16193048  .00001254  00000-0  11689-2 0  9994
2 03794  62.2711  52.8399 0564826 240.1621 114.2110 13.30712998704359
Epoch: 2026-05-05T03:53Z
TLE epoch observation values (Epoch: 2026-05-05T03:53:10.793Z)
Latitude
-0.00003°
Longitude
131.50418°
Altitude
1,339.236 km
Speed
7.096 km/s
True Right ascension
03h 31m 21s
True Declination
0° 00' 00"
Sunlit
Object was in daylight at epoch
Visualization orbit readout
Latitude
Unknown
Longitude
Unknown
Altitude
Unknown
Speed
Unknown
Apparent Right ascension
Unknown
Apparent Declination
Unknown
Sunlit
N/A
Visualization observer readout
Local Sidereal Time
06:03:56
Azimuth
Unknown
Elevation
Unknown
Doppler factor
Unknown
Orbital elements
Apogee altitude
1,567.865 km
Perigee altitude
718.233 km
Semi-major axis
7,521.186 km
Eccentricity
0.05648
Inclination
62.2711°
RAAN
52.8399°
Arg. of periapsis
240.1621°
True anomaly
119.93832°
Mean anomaly
114.211°
Eccentric anomaly
117.09212°
Mean motion
3.32747 °/min
Orbital period
108.19 mins
BSTAR
0.0011689
Loading maneuver chart data...
Computing Atmospheric mass density...
Loading historical data...
Loading historical data...
Loading historical data...
Loading historical data...
Loading historical data...
Loading historical data...
Loading historical data...

Documentation

Showing up to 5 results
|